Погода в Сунъюане

Китай     27°31′22″N   118°46′13″E
темп.,
°C
ветер,
м/с
пор.,
м/с
влажн.,
%
обл.,
%
осадки,
мм/ч
давл.,
гПа
погр.,
м
16 сентября, чт
чт1623:00+21ссв118396 0.0 101213
02:00+20ссв118497 0.0 101212
05:00+19св117779 0.0 101113
08:00+23ссв116825 0.0 1012229
11:00+28зсз1253100 0.0 10101076
14:00+30с1246100 0.0 10081833
17:00+28св116387 0.0 100818
20:00+21св117718 0.0 101011
17 сентября, пт
пт1723:00+20св118210 0.0 101112
02:00+19всв11840 0.0 101112
05:00+18всв11865 0.0 101111
08:00+23ссв11715 0.0 1013230
11:00+30зсз10513 0.0 10121000
14:00+32сз12430 0.0 10091911
17:00+28ссв11590 0.0 100917
20:00+22всв11680 0.0 101111
18 сентября, сб
сб1823:00+20всв11760 0.0 101214
02:00+20в11860 0.0 101213
05:00+19всв11930 0.0 101314
08:00+24вюв11760 0.0 1014290
11:00+30ююз12561 0.0 10131096
14:00+32з12459 0.0 10101913
17:00+28ююв116898 0.0 101034
20:00+24юв117818 0.0 101222
19 сентября, вс
вс1923:00+22юв21890 0.0 101324
02:00+21юв11950 0.0 101223
05:00+20вюв11960 0.0 101217
08:00+24юв11780 0.0 1013325
11:00+30ююз12563 0.0 10121063
14:00+32ююз234850 0.0 10091881
17:00+28зюз117279 0.3 100811
20:00+25вюв118397 0.9 100916
20 сентября, пн
пн2023:00+23юв118931 0.0 101015
02:00+22вюв119268 0.0 100912
05:00+22ююв11930 0.0 100912
08:00+25ю12800 0.0 1009282
11:00+28зюз247247 2.1 10101139
14:00+28зюз247145 4.4 10081169
17:00+24ссз229295 2.7 1009176
20:00+21ссз1197100 3.6 101121